カタログに戻る

STARLINK-37450

運用中通信SSO
NORAD 68818·PAYLOAD·🇺🇸 United States

打ち上げ Apr 23, 2026 から Vandenberg Space Force Base

Loading…

次のパス (今後24時間)

TLE

最新Source: CelesTrak SupGP

元期: Sep 15, 2026, 03:56 UTC

1 68818C 26089S   26258.16437500 -.00040220  00000+0 -12484-2 0  2583
2 68818  97.2855 104.0238 0001815  92.4089 233.9103 15.33461171    18

AllMySatでSTARLINK-37450をリアルタイム追跡

Download on the App Store